This demonstration page uses our WeatherBlox Daily Observations layout. Learn more.

Left ArrowRight Arrow

39.08367, -84.50855

Hourly Observations for May 8, 2017

Temp ( °F °C ) Dew Point ( °F °C ) Humidity (%) Winds ( mph kmh ) Pressure ( in mb ) Visibility ( mi km ) Precip ( " mm )
12:53 am 00:53 Clear 41 5 34 1.1 76 76 N N/A 30.05 1018 10 16.0934 N/A
1:53 am 01:53 Clear 39 3.9 33 0.6 79 79 N N/A 30.06 1018 10 16.0934 N/A
2:53 am 02:53 Clear 39 3.9 33 0.6 79 79 N N/A 30.06 1018 10 16.0934 N/A
3:53 am 03:53 Clear 34 1.1 33 0.6 97 97 N N/A 30.08 1019 10 16.0934 N/A
4:53 am 04:53 Clear 34 1.1 32 undefined 92 92 N N/A 30.09 1019 10 16.0934 N/A
5:53 am 05:53 Clear 34 1.1 31 -0.6 89 89 N N/A 30.11 1020 10 16.0934 N/A
6:53 am 06:53 Sunny 33 0.6 32 undefined 96 96 N N/A 30.13 1020 10 16.0934 N/A
7:53 am 07:53 Sunny 37 2.8 35 1.7 93 93 N N/A 30.15 1021 10 16.0934 N/A
8:53 am 08:53 Sunny 45 7.2 31 -0.6 58 58 SSW 3 6 30.15 1021 10 16.0934 N/A
9:53 am 09:53 Sunny 50 10 27 -2.8 41 41 WSW 5 7 30.15 1021 10 16.0934 N/A
10:53 am 10:53 Sunny 53 11.7 26 -3.3 35 35 VRB 5 7 30.16 1021 10 16.0934 N/A
11:53 am 11:53 Sunny 56 13.3 26 -3.3 32 32 SW 5 7 30.16 1021 10 16.0934 N/A
12:53 pm 12:53 Sunny 59 15 30 -1.1 33 33 W 9 15 30.15 1021 10 16.0934 N/A
1:53 pm 13:53 Sunny 62 16.7 31 -0.6 31 31 NNW 5 7 30.13 1020 10 16.0934 N/A
2:53 pm 14:53 Sunny 64 17.8 33 0.6 32 32 N 9 15 30.09 1019 10 16.0934 N/A
3:53 pm 15:53 Mostly Sunny 65 18.3 33 0.6 31 31 VRB 6 9 30.07 1018 10 16.0934 N/A
4:53 pm 16:53 Sunny 66 18.9 34 1.1 30 30 NW 6 9 30.05 1018 10 16.0934 N/A
5:53 pm 17:53 Sunny 66 18.9 37 2.8 34 34 W 8 13 30.03 1017 10 16.0934 N/A
6:53 pm 18:53 Sunny 65 18.3 34 1.1 32 32 WNW 7 11 30.02 1017 10 16.0934 N/A
7:53 pm 19:53 Cloudy 62 16.7 39 3.9 43 43 W 6 9 30.02 1017 10 16.0934 N/A
8:53 pm 20:53 Cloudy 62 16.7 35 1.7 37 37 NW 6 9 30.01 1016 10 16.0934 N/A
9:53 pm 21:53 Cloudy 56 13.3 46 7.8 70 70 N N/A 30.02 1017 10 16.0934 N/A
10:53 pm 22:53 Cloudy 56 13.3 47 8.3 72 72 N N/A 30.02 1017 10 16.0934 N/A
11:53 pm 23:53 Cloudy with Light Rain 53 11.7 50 10 89 89 N N/A 30.01 1016 10 16.0934 N/A

Powered by AerisWeather